Weather in Vaskovo

Russia / Kemerovo Oblast     55°02′27″N   85°05′13″E
temp.,
°C
wind,
m/s
gust,
m/s
humid.,
%
clouds,
%
prec.,
mm/h
press.,
hPa
HPBL,
m
18 june, fri
fri1801:00+15sw339120 0.8 100837
04:00+15sw33947 0.0 100650
07:00+17sw259194 0.0 1007149
10:00+21w5780100 1.4 1006708
13:00+23w257566 2.9 1005478
16:00+25w4666100 1.9 1004999
19:00+26s247028 2.9 1002302
22:00+20s46822 0.2 100281
19 june, sat
sat1901:00+18s36874 0.2 100192
04:00+17s3591100 0.0 100073
07:00+18sse1287100 0.1 100066
10:00+24sse3568100 0.0 999577
13:00+26se57615 0.0 9981008
16:00+29ssw695757 0.1 9962135
19:00+20w8128753 1.0 999606
22:00+13w6108694 0.0 1002545
20 june, sun
sun2001:00+11wsw6982100 0.0 1004716
04:00+10w4576100 0.0 1005832
07:00+9wsw468969 0.4 1006511
10:00+10wsw6875100 0.3 10071052
13:00+11wsw6867100 0.3 10091340
16:00+13wsw5864100 0.1 10091666
19:00+13sw586764 0.1 10101107
22:00+10s4973100 0.0 1010217
21 june, mon
mon2101:00+9s413785 0.0 1009308
04:00+8sse49835 0.0 1008243
07:00+10se512775 0.0 1008425
10:00+16se7115922 0.0 1005958
13:00+17s91360100 0.0 10042173
16:00+15s81364100 0.1 10031614
19:00+12s71587100 1.1 1003903
22:00+11sse61392100 0.3 1003595
22 june, tue
tue2201:00+11s6129078 0.4 1002669
04:00+10s71288100 0.1 1002960
07:00+9s61190100 0.3 1003828
10:00+10s61187100 0.3 10041163
13:00+11ssw5108592 0.5 1005886
16:00+10ssw71277100 0.1 10071234
19:00+9ssw5982100 0.2 10081198
22:00+8s5986100 0.1 1009892